Location: Robert Brownlee Observatory
(34.2308°N, 117.2089°W)
Time: 17:10:42
(UTC-07:00)

Cosmos 1943 - Visible Passes

Search period start: 04 July 2015 00:00
Search period end: 14 July 2015 00:00
Orbit: 835 x 849 km, 71.0° (Epoch: 04 July)

Date Brightness Start Highest point End Pass type
(mag) Time Alt. Az. Time Alt. Az. Time Alt. Az.
04 Jul 3.9 03:17:42 10° N 03:23:12 54° ENE 03:28:44 10° SE visible
04 Jul 4.6 05:03:17 10° WNW 05:06:52 17° W 05:10:12 10° SW visible
05 Jul 3.9 03:02:48 10° N 03:08:17 51° ENE 03:13:46 10° SE visible
05 Jul 4.6 04:48:11 10° WNW 04:51:58 18° W 04:55:28 10° SW visible
06 Jul 4.0 02:47:54 10° N 02:53:21 48° ENE 02:57:15 19° SE visible
06 Jul 4.5 04:33:07 10° WNW 04:37:04 19° WSW 04:38:57 16° SW visible
07 Jul 4.1 02:33:02 10° N 02:38:25 45° ENE 02:41:08 27° ESE visible
07 Jul 4.4 04:18:05 10° NW 04:22:10 20° WSW 04:22:52 20° WSW visible
08 Jul 4.2 02:18:08 10° N 02:23:29 43° ENE 02:25:20 33° ESE visible
08 Jul 4.4 04:03:02 10° NW 04:07:04 21° W 04:07:04 21° W visible
09 Jul 4.2 02:03:15 10° N 02:08:33 41° ENE 02:09:43 37° E visible
09 Jul 4.5 03:48:00 10° NW 03:51:27 22° W 03:51:27 22° W visible
10 Jul 4.2 01:48:22 10° N 01:53:36 39° ENE 01:54:15 37° E visible
10 Jul 4.6 03:32:58 10° NW 03:36:00 22° W 03:36:00 22° W visible
11 Jul 4.3 01:33:30 10° N 01:38:40 37° ENE 01:38:54 36° ENE visible
11 Jul 4.7 03:17:57 10° NW 03:20:40 21° WNW 03:20:40 21° WNW visible
12 Jul 4.4 01:18:37 10° N 01:23:40 35° ENE 01:23:40 35° ENE visible
12 Jul 4.8 03:02:57 10° NW 03:05:26 21° WNW 03:05:26 21° WNW visible
13 Jul 4.5 01:03:45 10° N 01:08:30 33° NE 01:08:30 33° NE visible
13 Jul 4.8 02:47:56 10° NW 02:50:16 21° WNW 02:50:16 21° WNW visible
